Regional Weather Roundup
Issued by NWS

Home | Current Version | Previous Version | Text Only | Print | Product List | Glossary Off
Versions: 1 2 3 4 5 6 7 8 9 10 11 12 13 14 15 16 17 18 19 20 21 22 23 24 25 26 27

000
ASUS45 KTFX 251310
RWRMT
MONTANA REGIONAL WEATHER ROUNDUP
NATIONAL WEATHER SERVICE GREAT FALLS MT
700 AM MDT WED MAY 25 2016

NOTE: "FAIR" INDICATES FEW OR NO CLOUDS BELOW 12000 FEET WITH NO
SIGNIFICANT WEATHER AND/OR OBSTRUCTIONS TO VISIBILITY.

MTZ001>007-043-251400-
WEST OF THE DIVIDE

CITY           SKY/WX    TMP DP  RH WIND       PRES   REMARKS
KALISPELL      CLOUDY    44  44 100 CALM      29.96R
MISSOULA       CLOUDY    38  37  97 CALM      30.02R
BUTTE          MOSUNNY   30  29  96 S5        30.00R
MULLAN PASS    FOG       39  39 100 NW5       30.01R VSB 1/4
ANACONDA         N/A     37  34  87 SE3       29.99S
DEER LODGE       N/A     36  34  93 CALM      30.01R
EUREKA           N/A     39  37  93 SE3       29.96R
HAMILTON         N/A     39  37  93 S3        30.01R
LIBBY            N/A     37  37 100 CALM      29.98S
PLAINS           N/A     43  40  89 CALM      30.01R
$$

MTZ008-052>055-251400-
SOUTHWEST MONTANA

CITY           SKY/WX    TMP DP  RH WIND       PRES   REMARKS
BOZEMAN        CLOUDY    44  40  85 SW3       29.97R
DILLON         PTSUNNY   42  38  85 S3        29.97R
ENNIS          PTSUNNY   43  41  93 CALM      30.03R
TWIN BRIDGES     N/A     42  37  82 CALM      29.97R
$$

MTZ009-010-012-014-046-048-049-054-251400-
EAST SLOPES AND CENTRAL MONTANA

CITY           SKY/WX    TMP DP  RH WIND       PRES   REMARKS
CUT BANK       MOSUNNY   41  38  89 N6        29.88R
GREAT FALLS    SUNNY     44  40  85 SW9       29.90R
MALMSTROM AFB  SUNNY     43  41  91 SW7       29.90S
HELENA         SUNNY     43  39  86 E3        29.95R
CHOTEAU          N/A     45  37  76 SW6       29.89S
CONRAD           N/A     38  38 100 SW2       29.91S
$$

MTZ011-013-016-021-045-047-050-051-251400-
NORTH CENTRAL MONTANA

CITY           SKY/WX    TMP DP  RH WIND       PRES   REMARKS
HAVRE            N/A    N/A N/A N/A MISG      29.87R
LEWISTOWN      PTSUNNY   43  37  79 E3        29.91S
N BAR RANCH      N/A     39  36  87 N3        29.94R
CHINOOK          N/A     45  45 100 E5        29.88S
$$

MTZ017>020-022>027-061-062-251400-
NORTHEAST MONTANA

CITY           SKY/WX    TMP DP  RH WIND       PRES   REMARKS
GLASGOW        CLOUDY    48  44  86 E3        29.88S
JORDAN           N/A     49  43  80 CALM      29.89R
SIDNEY         RAIN      51  49  92 N9        29.85S
WOLF POINT     CLOUDY    51  49  92 W5        29.89R
PLENTYWOOD       N/A     52  48  87 W6        29.88S
POPLAR           N/A     50  48  93 CALM      29.90R
SCOBEY           N/A     43  34  70 W3        29.88S
$$

MTZ028>42-056>058-251400-
SOUTHCENTRAL AND SOUTHEAST MONTANA

CITY           SKY/WX    TMP DP  RH WIND       PRES   REMARKS
BAKER          LGT RAIN  49  45  86 NW10      29.85R
BILLINGS       CLOUDY    45  42  89 SW9       29.91S
LIVINGSTON     CLOUDY    42  38  85 W3        29.94S
MILES CITY     CLOUDY    51  48  89 E7        29.88S
EKALAKA          N/A     47  44  89 NW5       29.86R
FORSYTH          N/A     52  52 100 W3        29.88S
$$

REGIONAL REPORTS...DAKOTAS

CITY           SKY/WX    TMP DP  RH WIND       PRES   REMARKS
WILLISTON      CLOUDY    53  48  83 N9        29.84S
MINOT          LGT RAIN  58  54  86 NW6       29.83F
DICKINSON      CLOUDY    53  50  89 SE9       29.81S
BEACH          CLOUDY    48  48 100 NW7       29.85R
CROSBY         CLOUDY    50  50 100 N9        29.88F
WATFORD CITY   CLOUDY    52  52 100 NE6       29.83F
BISMARCK       CLOUDY    60  56  86 NE3       29.82R
GRAND FORKS    CLOUDY    65  52  62 E12       29.81S
FARGO          CLOUDY    66  53  63 SE15      29.80R
BUFFALO SD       N/A     51  48  89 SE6       29.77S
RAPID CITY     SUNNY     53  48  83 CALM      29.86S
$$

REGIONAL REPORTS...WYOMING/IDAHO/WASHINGTON

CITY           SKY/WX    TMP DP  RH WIND       PRES   REMARKS
GILLETTE       CLOUDY    48  47  96 NW7       29.90R
SHERIDAN       CLOUDY    49  46  90 S7        29.91S
BUFFALO WY     CLOUDY    46  43  89 NW7       29.94S
CODY           CLOUDY    45  43  93 CALM      29.93S
YELLOWSTONE LA   N/A     33  31  92 CALM      30.03R
IDAHO FALLS    CLOUDY    45  43  93 CALM      29.99R
SALMON         CLOUDY    43  39  87 CALM      29.98R
BOISE          PTCLDY    50  42  74 CALM      29.97R
SPOKANE        PTCLDY    47  44  90 S5        29.97R
$$

REGIONAL REPORTS...ALBERTA

CITY           SKY/WX    TMP DP  RH WIND       PRES   REMARKS
EDMONTON       SUNNY     50  45  81 S5        29.84R
CALGARY        SUNNY     45  41  87 SW5       29.86S
LETHBRIDGE     MOSUNNY   43  41  93 S3        29.86R
MEDICINE HAT   MOSUNNY   41  39  93 CALM      29.88S
WATERTON GATE    N/A     50  37  62 SW17G26     N/A
MILK RIVER       N/A     43  39  87 W9          N/A
ONEFOUR          N/A     46  43  87 E8          N/A
$$

REGIONAL REPORTS...SASKATCHEWAN

CITY           SKY/WX    TMP DP  RH WIND       PRES   REMARKS
SWIFT CURRENT  FOG       46  46 100 SW5       29.88R VSB 1/4
REGINA         PTSUNNY   43  41  93 SE7       29.90R
SASKATOON      FOG       46  46 100 NE6       29.91R VSB 1/2
CYPRESS HILLS    N/A     43  41  93 SW2         N/A
VAL MARIE        N/A     39  37  93 NE3         N/A
ROCKGLEN         N/A     43  41  93 E2          N/A
ASSINIBOIA       N/A     46  45  93 S8          N/A
$$




USA.gov is the U.S. government's official web portal to all federal, state and local government web resources and services.